Hourly Data Report for October 11, 2016

All times are specified in Local Standard Time (LST). Add 1 hour to adjust for Daylight Saving Time where and when it is observed.

TORONTO INTL A
ONTARIO

43°40'36.000" N
79°37'50.000" W
173.40 m
6158731
71624
YYZ

Download Data

Hourly Data (October 2016)
Hourly Data Report for October 11, 2016
Temp Definition
°C
Dew Point Temp Definition
°C
Rel Hum Definition
%
Wind Dir Definition
10's deg

Wind Spd Definition
km/h
Visibility Definition
km
Stn Press Definition
kPa
Hmdx Definition


Wind Chill Definition


Weather Definition


TIME
00:00 Legend Double Dagger 7.5 2.0 68 36 3 24.1 100.86     LegendNANA
01:00 Legend Double Dagger 7.6 1.7 66 36 2 24.1 100.83     Clear
02:00 Legend Double Dagger 6.0 2.1 76 31 5 24.1 100.83     LegendNANA
03:00 Legend Double Dagger 6.3 1.8 73 36 3 24.1 100.81     LegendNANA
04:00 Legend Double Dagger 4.8 1.7 80 35 4 24.1 100.79     Clear
05:00 Legend Double Dagger 4.3 1.7 83 33 3 24.1 100.81     LegendNANA
06:00 Legend Double Dagger 4.7 2.1 83 2 9 24.1 100.82     LegendNANA
07:00 Legend Double Dagger 3.9 1.3 83 31 5 24.1 100.86     Mainly Clear
08:00 Legend Double Dagger 7.7 3.8 76 32 5 24.1 100.88     LegendNANA
09:00 Legend Double Dagger 11.5 5.8 68 6 4 24.1 100.84     LegendNANA
10:00 Legend Double Dagger 14.1 6.0 58 13 9 24.1 100.82     Mostly Cloudy
11:00 Legend Double Dagger 15.3 7.7 60 16 8 24.1 100.76     LegendNANA
12:00 Legend Double Dagger 15.4 8.5 63 14 10 24.1 100.68     LegendNANA
13:00 Legend Double Dagger 16.5 9.3 62 11 9 24.1 100.57     Mostly Cloudy
14:00 Legend Double Dagger 15.8 8.4 61 16 12 24.1 100.52     LegendNANA
15:00 Legend Double Dagger 15.2 9.4 68 15 12 24.1 100.47     LegendNANA
16:00 Legend Double Dagger 15.2 8.7 65 14 8 24.1 100.45     Mostly Cloudy
17:00 Legend Double Dagger 14.8 8.4 65 14 11 24.1 100.40     LegendNANA
18:00 Legend Double Dagger 14.1 8.3 68 10 11 24.1 100.36     LegendNANA
19:00 Legend Double Dagger 13.4 8.5 72 11 10 24.1 100.34     Mostly Cloudy
20:00 Legend Double Dagger 13.0 8.5 74 10 9 24.1 100.31     LegendNANA
21:00 Legend Double Dagger 12.9 8.4 74 36 3 24.1 100.27     LegendNANA
22:00 Legend Double Dagger 12.4 8.3 76 10 7 24.1 100.23     Mostly Cloudy
23:00 Legend Double Dagger 11.9 8.0 77 36 1 24.1 100.23     LegendNANA

Notes on Data Quality.

Legend

  • E = Estimated
  • M = Missing
  • NA = Not Available
  • ‡ = Partner data that is not subject to review by the National Climate Archives
Date modified: